Total_Precipitation_Accumulation
1.72 1.78 1.88 1.86 1.95 2.05 2.10 2.01 2.12 2.24 2.39 2.37 2.34 2.30 2.15 2.08 2.17 2.27 2.14 2.29 2.28 2.30 2.29 2.37 2.41 2.59 2.72 2.67 2.72 2.79 3.07 3.39 3.31 3.03 2.73 2.55 2.49 2.46 2.30 2.23 2.14 2.03 1.85
1.70 1.72 1.85 1.93 1.89 1.86 1.83 1.85 1.92 1.96 2.04 2.07 2.04 2.04 2.03 2.13 2.24 2.16 2.10 2.13 2.21 2.18 2.26 2.41 2.31 2.48 2.63 2.55 2.67 2.69 2.87 3.25 3.40 3.47 3.37 3.06 2.81 2.66 2.61 2.39 1.96 1.80 1.86
1.76 1.75 1.88 1.82 1.75 1.80 1.94 2.00 1.97 1.97 2.00 1.97 1.97 1.96 2.00 2.18 2.30 2.25 2.24 2.29 2.31 2.20 2.30 2.34 2.22 2.36 2.42 2.44 2.50 2.57 2.76 2.97 3.27 3.22 3.24 3.17 3.00 2.76 2.87 2.56 2.23 2.17 1.77
1.75 1.83 1.93 1.90 1.90 1.99 2.11 2.20 2.16 2.06 2.06 2.12 2.11 2.06 2.09 2.02 2.05 2.19 2.33 2.34 2.31 2.21 2.20 2.12 2.01 2.01 2.10 2.29 2.30 2.43 2.65 2.84 3.04 2.99 3.05 3.15 3.23 3.24 3.26 3.01 2.81 2.57 2.18
1.76 1.89 1.99 2.05 2.04 2.07 2.09 2.19 2.18 2.06 2.02 2.23 2.24 2.20 2.18 2.04 1.91 2.02 2.14 2.08 2.12 2.07 2.02 1.85 1.66 1.72 1.83 1.91 1.84 2.19 2.52 2.64 2.73 2.81 2.90 3.09 3.24 3.49 3.29 3.15 3.03 2.97 2.66
1.62 1.79 1.86 1.97 2.09 2.08 2.06 2.12 2.13 2.16 2.20 2.22 2.16 2.16 2.05 1.75 1.81 1.75 1.72 1.77 1.85 1.86 1.89 1.86 1.71 1.61 1.56 1.60 1.57 1.74 2.06 2.22 2.42 2.72 2.85 3.05 3.15 3.17 3.33 3.32 3.27 3.12 2.83
1.51 1.66 1.79 1.91 2.00 2.04 1.99 2.09 2.20 2.18 2.11 2.00 1.94 1.94 1.89 1.80 1.65 1.43 1.38 1.51 1.70 1.78 1.82 1.85 1.60 1.48 1.55 1.43 1.51 1.57 1.61 1.71 1.89 2.27 2.54 2.63 2.69 2.74 3.05 3.16 3.16 3.04 2.95
1.59 1.71 1.79 1.92 1.97 1.99 1.97 1.95 1.97 1.96 1.94 1.95 1.85 1.83 1.91 1.80 1.69 1.44 1.33 1.30 1.49 1.55 1.54 1.58 1.62 1.60 1.51 1.55 1.53 1.52 1.43 1.46 1.57 1.60 1.78 2.00 2.27 2.52 2.73 2.93 3.21 3.16 3.09
1.60 1.75 1.87 1.97 1.99 1.97 1.99 1.94 1.96 1.96 1.90 1.90 1.88 1.90 1.89 1.82 1.75 1.53 1.43 1.40 1.51 1.53 1.56 1.58 1.66 1.71 1.72 1.58 1.53 1.56 1.56 1.57 1.52 1.53 1.48 1.58 1.75 1.89 2.07 2.36 2.72 3.06 3.26
1.64 1.74 1.86 1.96 2.08 2.04 2.12 2.16 2.11 2.01 1.92 1.91 1.94 1.90 1.80 1.76 1.65 1.47 1.44 1.44 1.63 1.74 1.85 1.84 1.75 1.62 1.62 1.51 1.48 1.57 1.55 1.55 1.47 1.43 1.38 1.36 1.36 1.50 1.69 1.91 2.22 2.59 2.88
1.71 1.81 1.92 2.01 2.07 2.06 2.12 2.16 2.15 2.08 2.05 1.94 1.82 1.84 1.83 1.73 1.54 1.28 1.24 1.28 1.53 1.77 1.82 1.77 1.65 1.49 1.35 1.31 1.28 1.38 1.47 1.41 1.41 1.45 1.49 1.48 1.50 1.54 1.61 1.72 2.02 2.29 2.43
1.86 1.84 1.92 2.04 1.88 1.87 2.09 2.17 2.20 2.22 2.18 2.05 1.93 1.85 1.87 1.80 1.52 1.33 1.27 1.27 1.43 1.68 1.88 1.85 1.70 1.51 1.32 1.23 1.09 1.14 1.20 1.14 1.21 1.39 1.47 1.49 1.52 1.54 1.63 1.75 1.95 2.16 2.35
1.85 1.90 1.91 1.95 2.05 2.11 2.17 2.23 2.21 2.17 2.14 2.11 2.06 1.95 1.92 1.95 1.87 1.60 1.45 1.40 1.48 1.56 1.71 1.88 1.76 1.46 1.23 1.13 1.09 1.01 0.91 0.91 1.06 1.19 1.27 1.37 1.43 1.52 1.65 1.84 2.07 2.23 2.30
1.98 2.07 2.04 2.00 2.03 2.19 2.36 2.36 2.29 2.15 2.19 2.23 2.12 2.10 2.11 2.14 2.03 1.80 1.63 1.52 1.54 1.53 1.53 1.55 1.50 1.35 1.17 1.18 1.20 1.06 0.94 1.01 1.07 1.08 1.16 1.29 1.37 1.47 1.62 1.74 1.93 2.15 2.29
2.17 2.15 2.16 2.18 2.21 2.29 2.29 2.28 2.28 2.22 2.17 2.21 2.19 2.16 2.15 2.09 1.97 1.85 1.73 1.66 1.64 1.58 1.49 1.50 1.46 1.45 1.32 1.27 1.32 1.31 1.27 1.31 1.27 1.21 1.24 1.28 1.34 1.39 1.47 1.61 1.78 1.90 2.01
2.43 2.32 2.32 2.31 2.33 2.31 2.34 2.19 2.04 1.95 1.90 1.81 1.83 1.82 1.75 1.73 1.68 1.59 1.57 1.55 1.51 1.50 1.39 1.47 1.57 1.56 1.52 1.51 1.50 1.48 1.47 1.44 1.43 1.46 1.44 1.39 1.39 1.41 1.39 1.45 1.59 1.68 1.72
2.58 2.54 2.43 2.36 2.30 2.27 2.35 2.36 2.25 2.12 2.07 1.91 1.76 1.67 1.64 1.61 1.52 1.44 1.44 1.48 1.48 1.44 1.36 1.47 1.63 1.66 1.66 1.66 1.60 1.55 1.59 1.54 1.55 1.56 1.53 1.51 1.54 1.55 1.52 1.52 1.62 1.73 1.73
2.50 2.48 2.42 2.38 2.30 2.27 2.34 2.40 2.33 2.28 2.26 2.12 1.91 1.79 1.61 1.45 1.36 1.34 1.42 1.41 1.38 1.36 1.43 1.62 1.79 1.79 1.79 1.76 1.67 1.60 1.61 1.59 1.58 1.57 1.57 1.54 1.57 1.64 1.65 1.62 1.62 1.69 1.69
2.47 2.40 2.36 2.33 2.37 2.43 2.46 2.50 2.46 2.42 2.36 2.25 2.00 1.83 1.70 1.47 1.35 1.33 1.34 1.30 1.42 1.53 1.61 1.71 1.76 1.78 1.78 1.72 1.63 1.58 1.61 1.59 1.56 1.59 1.59 1.59 1.59 1.68 1.67 1.63 1.61 1.68 1.60
2.54 2.53 2.43 2.29 2.27 2.38 2.49 2.43 2.40 2.42 2.37 2.26 2.13 1.91 1.67 1.50 1.42 1.42 1.36 1.36 1.47 1.54 1.57 1.58 1.57 1.57 1.60 1.63 1.63 1.65 1.70 1.66 1.64 1.63 1.57 1.56 1.56 1.60 1.63 1.63 1.61 1.59 1.55
2.27 2.21 2.17 2.01 1.98 2.03 2.21 2.27 2.26 2.34 2.27 2.14 2.04 1.98 1.76 1.47 1.48 1.49 1.48 1.45 1.47 1.50 1.50 1.50 1.49 1.46 1.44 1.51 1.57 1.58 1.61 1.63 1.59 1.55 1.54 1.56 1.53 1.57 1.57 1.54 1.51 1.45 1.45
2.11 2.06 1.95 1.85 1.87 1.95 2.05 2.10 2.17 2.25 2.23 2.14 1.99 1.91 1.82 1.55 1.49 1.46 1.42 1.39 1.38 1.39 1.40 1.48 1.50 1.46 1.43 1.49 1.52 1.54 1.53 1.50 1.46 1.45 1.43 1.41 1.43 1.47 1.47 1.48 1.50 1.49 1.47
2.26 2.16 2.12 2.07 1.98 2.03 2.01 2.05 2.16 2.13 2.05 2.04 1.96 1.83 1.73 1.71 1.62 1.53 1.44 1.37 1.34 1.34 1.33 1.36 1.40 1.38 1.36 1.37 1.39 1.39 1.34 1.31 1.28 1.25 1.29 1.33 1.36 1.41 1.42 1.45 1.50 1.56 1.55
2.27 2.27 2.17 2.04 1.95 1.90 1.91 2.00 2.04 1.94 1.81 1.80 1.76 1.66 1.64 1.66 1.61 1.52 1.38 1.32 1.32 1.30 1.25 1.21 1.15 1.11 1.11 1.13 1.16 1.17 1.13 1.12 1.12 1.15 1.19 1.27 1.30 1.33 1.36 1.42 1.50 1.56 1.55
2.06 2.14 2.16 2.07 1.92 1.78 1.73 1.75 1.73 1.67 1.61 1.57 1.57 1.56 1.55 1.51 1.45 1.36 1.28 1.25 1.22 1.17 1.07 1.02 1.00 0.99 0.97 0.96 0.96 0.99 1.06 1.09 1.09 1.08 1.10 1.18 1.22 1.28 1.28 1.33 1.40 1.46 1.44
1.91 1.94 1.89 1.80 1.67 1.55 1.52 1.54 1.53 1.46 1.41 1.36 1.32 1.31 1.25 1.22 1.20 1.14 1.07 1.07 1.07 1.07 1.03 1.00 0.99 0.99 0.99 0.96 0.94 0.95 0.94 0.89 0.92 0.95 0.91 0.91 1.04 1.13 1.12 1.08 1.08 1.18 1.21